EW8032 Weather Reports


time (UTC)temp
C
wind
direction
speed
KPH
gust
KPH
rain 1hr
cm
rain 24hr
cm
rain mn
cm
humidity
%
barometer
mb
20260507100331 15 77 9.7 16.1 0.03 0.97 0.33 78 1013.9
20260507100151 15 78 11.3 16.1 0.03 0.97 0.33 78 1014.0
20260507100059 15 92 8.0 16.1 0.03 0.97 0.33 79 1014.0
20260507100012 15 105 6.4 16.1 0.03 0.97 0.33 81 1014.0
20260507095828 15 113 6.4 14.5 0.03 0.99 0.33 80 1014.0
20260507095624 15 63 8.0 16.1 0.03 0.99 0.33 81 1014.0
20260507095442 15 74 6.4 16.1 0.03 0.99 0.33 82 1014.0
20260507095305 15 101 9.7 16.1 0.03 0.99 0.33 81 1014.0
20260507094823 15 61 9.7 16.1 0.03 0.99 0.33 83 1014.0
20260507094626 15 121 8.0 16.1 0.03 0.99 0.33 84 1014.0
20260507094444 15 124 9.7 16.1 0.03 0.99 0.33 83 1013.9
20260507094039 14 113 9.7 16.1 0.03 0.99 0.33 83 1014.0
20260507093945 14 57 11.3 16.1 0.03 0.99 0.33 83 1013.9
20260507093759 14 80 11.3 17.7 0.03 0.99 0.33 83 1013.9
20260507093610 14 103 6.4 17.7 0.03 0.99 0.33 85 1013.9
20260507093429 14 88 8.0 17.7 0.03 0.99 0.33 85 1014.0
20260507093246 14 68 8.0 17.7 0.03 0.99 0.33 84 1014.0
20260507092505 14 126 8.0 17.7 0.05 0.99 0.33 86 1014.0
20260507092320 14 117 11.3 17.7 0.05 0.99 0.33 86 1014.0
20260507092134 13 93 8.0 17.7 0.05 0.99 0.33 87 1013.9
20260507092035 13 70 9.7 17.7 0.05 0.99 0.33 87 1014.0
20260507091552 13 92 9.7 17.7 0.05 0.99 0.33 89 1014.0
20260507091400 13 61 6.4 14.5 0.03 0.99 0.33 90 1014.0
20260507090806 13 99 4.8 14.5 0.03 0.99 0.30 92 1014.2
20260507090707 13 121 1.6 12.9 0.03 0.99 0.30 93 1014.0
20260507090227 13 96 3.2 11.3 0.03 0.99 0.30 94 1014.1
20260507090021 13 72 1.6 11.3 0.03 0.99 0.30 94 1014.1
20260507085836 13 75 4.8 12.9 0.03 0.99 0.30 94 1014.1
20260507085335 13 77 8.0 12.9 0.03 0.99 0.30 95 1014.1
20260507085241 13 104 8.0 12.9 0.03 0.99 0.30 95 1014.1
20260507085104 13 114 3.2 12.9 0.03 0.99 0.30 95 1014.2
20260507084910 13 48 8.0 12.9 0.03 0.99 0.30 96 1014.1
20260507084727 12 71 4.8 12.9 0.03 0.99 0.30 96 1014.2
20260507084535 12 74 4.8 12.9 0.03 0.99 0.30 96 1014.1
20260507084439 12 57 3.2 12.9 0.05 0.99 0.30 97 1014.3
20260507084005 12 111 4.8 12.9 0.05 0.99 0.30 97 1014.2
20260507083551 12 113 6.4 12.9 0.05 0.99 0.30 97 1014.1
20260507083410 12 76 8.0 12.9 0.05 0.99 0.30 98 1014.2
20260507082914 12 67 3.2 11.3 0.05 0.99 0.30 98 1014.2
20260507082812 12 98 3.2 11.3 0.05 0.99 0.30 99 1014.1
20260507082624 12 125 4.8 11.3 0.05 0.99 0.30 98 1014.2
20260507082424 12 109 3.2 11.3 0.05 0.99 0.30 99 1014.1
20260507082245 12 98 6.4 11.3 0.05 0.99 0.30 98 1014.2
20260507082052 12 117 6.4 11.3 0.05 0.99 0.30 99 1014.2
20260507081956 12 111 6.4 11.3 0.05 0.99 0.30 99 1014.1
20260507081515 12 138 3.2 8.0 0.05 0.99 0.30 99 1014.2
20260507080712 12 79 3.2 6.4 0.03 0.99 0.28 99 1014.1
20260507080528 12 93 3.2 6.4 0.03 0.99 0.28 99 1014.1
20260507080428 12 117 3.2 4.8 0.03 0.99 0.28 99 1014.1
20260507080339 12 70 3.2 4.8 0.03 0.99 0.28 99 1014.1
20260507080200 12 77 1.6 4.8 0.03 0.99 0.28 100 1014.1
20260507080014 11 92 1.6 4.8 0.03 0.99 0.28 99 1014.1
20260507075859 11 98 3.2 6.4 0.03 0.99 0.28 99 1014.0
20260507075712 11 60 3.2 6.4 0.03 0.99 0.28 100 1014.1
20260507075340 11 46 1.6 6.4 0.05 0.99 0.28 99 1014.0
20260507075211 11 53 3.2 6.4 0.05 0.99 0.28 99 1014.0
20260507074757 11 55 3.2 6.4 0.05 0.99 0.28 99 1014.1
20260507074621 11 47 1.6 6.4 0.05 0.99 0.28 99 1014.0
20260507074144 11 146 0.0 6.4 0.05 0.99 0.28 99 1014.0
20260507074105 11 74 1.6 6.4 0.05 0.99 0.28 99 1014.0
20260507073555 11 114 3.2 6.4 0.05 0.99 0.28 99 1014.1
20260507073421 11 48 1.6 6.4 0.05 0.99 0.28 100 1014.1
20260507073250 11 84 3.2 6.4 0.05 0.99 0.28 99 1014.1
20260507073151 11 67 1.6 6.4 0.03 0.97 0.25 100 1014.1
20260507073057 10 72 1.6 4.8 0.03 0.97 0.25 100 1014.0
20260507072932 10 67 1.6 4.8 0.03 0.99 0.25 100 1014.0
20260507072746 10 98 0.0 4.8 0.03 0.99 0.25 99 1014.0
20260507072036 10 80 3.2 4.8 0.03 0.99 0.25 100 1014.1
20260507071951 10 81 3.2 4.8 0.03 0.99 0.25 100 1014.1
20260507071847 10 89 1.6 4.8 0.03 0.99 0.25 100 1014.1
20260507071311 10 82 0.0 4.8 0.03 0.99 0.25 99 1014.1
20260507071159 10 80 3.2 4.8 0.03 0.99 0.25 99 1014.1
20260507070956 10 77 3.2 4.8 0.03 0.99 0.25 99 1014.1
20260507070919 10 71 3.2 4.8 0.03 0.99 0.25 99 1014.1
20260507070813 10 71 1.6 4.8 0.03 0.99 0.25 99 1014.1
20260507070627 9 56 3.2 4.8 0.03 0.99 0.25 99 1014.1
20260507070508 9 71 3.2 4.8 0.03 0.99 0.25 100 1014.1
20260507070056 9 106 1.6 4.8 0.05 0.99 0.25 99 1014.1
20260507065647 9 52 3.2 4.8 0.05 0.99 0.25 99 1014.2
20260507065536 9 62 3.2 4.8 0.05 0.99 0.25 99 1014.1
20260507065020 8 83 3.2 4.8 0.05 0.99 0.25 99 1014.2
20260507064610 8 78 3.2 4.8 0.05 0.99 0.25 99 1014.2
20260507064413 8 16 3.2 4.8 0.03 0.97 0.23 99 1014.1
20260507064319 8 11 3.2 4.8 0.03 0.97 0.23 99 1014.1
20260507064205 8 11 3.2 4.8 0.03 0.97 0.23 99 1014.1
20260507064027 8 313 1.6 3.2 0.03 0.97 0.23 99 1014.1
20260507063647 8 313 0.0 3.2 0.03 0.97 0.23 99 1014.1
20260507063519 8 313 0.0 3.2 0.03 0.97 0.23 99 1014.1
20260507063359 8 313 1.6 3.2 0.03 0.97 0.23 99 1014.1
20260507063245 8 313 1.6 3.2 0.03 0.97 0.23 99 1014.1
20260507063129 8 313 0.0 4.8 0.03 0.97 0.23 99 1014.1
20260507063006 8 313 1.6 4.8 0.03 0.97 0.23 99 1014.1
20260507062919 8 313 1.6 4.8 0.03 0.97 0.23 99 1014.1
20260507062828 8 313 1.6 4.8 0.03 0.97 0.23 99 1014.1
20260507062259 7 313 1.6 4.8 0.03 0.97 0.23 99 1014.2
20260507061804 7 313 0.0 1.6 0.03 0.99 0.23 99 1014.0
20260507061631 7 313 0.0 1.6 0.03 0.99 0.23 99 1014.0
20260507061554 7 313 0.0 0.0 0.03 0.99 0.23 98 1014.1
20260507061455 7 313 0.0 0.0 0.03 0.99 0.23 98 1014.1
20260507061356 7 313 0.0 0.0 0.03 0.99 0.23 99 1014.1
20260507061242 7 313 0.0 0.0 0.03 0.99 0.23 98 1014.1
20260507061138 7 313 0.0 0.0 0.03 0.99 0.23 99 1014.1
20260507061109 7 313 0.0 0.0 0.03 0.99 0.23 99 1014.0
20260507061031 7 313 0.0 0.0 0.03 0.99 0.23 99 1014.1
20260507060351 7 313 0.0 0.0 0.05 0.99 0.23 98 1014.2
20260507060233 7 313 0.0 0.0 0.05 0.99 0.23 98 1014.1
20260507055532 7 313 0.0 0.0 0.05 0.99 0.23 98 1014.2
20260507055434 7 313 0.0 0.0 0.03 0.97 0.23 98 1014.1
20260507055332 7 313 0.0 0.0 0.03 0.97 0.23 99 1014.0
20260507054932 7 313 0.0 0.0 0.03 0.97 0.23 99 1014.0
20260507054833 7 313 0.0 0.0 0.03 0.97 0.23 99 1013.9
20260507054108 7 313 0.0 0.0 0.03 0.97 0.23 99 1013.9
20260507053935 7 313 0.0 0.0 0.03 0.97 0.23 99 1013.9
20260507053718 11 265 0.0 0.0 0.05 1.02 0.97 92 1015.0
20260507053646 7 313 0.0 0.0 0.03 0.97 0.23 98 1013.8
20260507053545 7 313 0.0 0.0 0.03 0.97 0.23 98 1013.8
20260507053517 7 313 0.0 0.0 0.03 0.97 0.23 98 1013.9
20260507053345 7 313 0.0 0.0 0.03 0.97 0.23 98 1013.9
20260507052932 6 313 0.0 0.0 0.03 0.97 0.23 98 1013.8
20260507052812 6 313 0.0 0.0 0.03 0.97 0.23 98 1013.8
20260507052807 11 265 0.0 0.0 0.05 0.99 0.94 92 1015.0
20260507052615 6 313 0.0 0.0 0.03 0.97 0.23 98 1013.8
20260507052458 7 313 0.0 0.0 0.03 0.97 0.23 98 1013.9
20260507052433 6 313 0.0 0.0 0.03 0.97 0.23 98 1014.0
20260507052211 6 313 0.0 0.0 0.03 0.97 0.23 98 1013.9
20260507052017 6 313 0.0 0.0 0.03 0.97 0.23 98 1013.8
20260507051927 6 313 0.0 0.0 0.03 0.97 0.23 98 1013.8
20260507051809 6 313 0.0 0.0 0.03 0.97 0.23 98 1013.9
20260507051616 6 313 0.0 0.0 0.03 0.99 0.23 98 1013.8
20260507051459 6 313 0.0 0.0 0.03 0.99 0.23 98 1013.8
20260507051440 6 313 0.0 0.0 0.03 0.99 0.23 98 1013.7
20260507051316 6 313 0.0 0.0 0.03 0.99 0.23 98 1013.8
20260507051201 6 313 0.0 0.0 0.05 0.99 0.23 98 1013.8
20260507051114 6 313 0.0 0.0 0.05 0.99 0.23 98 1013.8
20260507051009 6 313 0.0 0.0 0.05 0.99 0.23 98 1013.7
20260507050919 6 313 0.0 0.0 0.05 0.99 0.23 98 1013.7
20260507050817 6 313 0.0 0.0 0.05 0.99 0.23 98 1013.8
20260507050802 6 313 0.0 0.0 0.05 0.99 0.23 98 1013.7
20260507050621 6 313 0.0 0.0 0.05 0.99 0.23 98 1013.7
20260507050233 6 313 0.0 0.0 0.03 0.97 0.20 98 1013.6
20260507050127 6 313 0.0 0.0 0.03 0.97 0.20 98 1013.6
20260507045457 6 313 0.0 0.0 0.03 0.97 0.20 98 1013.6
20260507045331 6 313 0.0 0.0 0.03 0.97 0.20 98 1013.7
20260507045241 6 313 0.0 0.0 0.03 0.97 0.20 98 1013.7
20260507044930 6 313 0.0 0.0 0.03 0.97 0.20 98 1013.6
20260507044725 6 313 0.0 0.0 0.03 0.97 0.20 97 1013.6
20260507044359 6 313 0.0 0.0 0.03 0.97 0.20 97 1013.6
20260507044214 6 313 0.0 0.0 0.03 0.97 0.20 97 1013.6
20260507044100 6 313 0.0 0.0 0.03 0.97 0.20 97 1013.6
20260507044008 6 313 0.0 0.0 0.03 0.97 0.20 97 1013.7
20260507043443 7 313 0.0 0.0 0.03 0.97 0.20 98 1013.6
20260507043413 7 313 0.0 0.0 0.03 0.97 0.20 98 1013.6
20260507043252 11 265 0.0 0.0 0.05 0.99 0.94 92 1015.0
20260507043210 7 313 0.0 0.0 0.03 0.97 0.20 98 1013.7
20260507043037 7 313 0.0 0.0 0.03 0.97 0.20 98 1013.7
20260507042929 7 313 0.0 0.0 0.03 0.97 0.20 98 1013.6
20260507042806 7 313 0.0 0.0 0.03 0.97 0.20 98 1013.7
20260507042640 7 313 0.0 0.0 0.03 0.99 0.20 98 1013.7
20260507042522 7 313 0.0 0.0 0.03 0.99 0.20 98 1013.7
20260507042338 7 313 0.0 0.0 0.05 0.99 0.20 98 1013.8
20260507041939 7 313 0.0 0.0 0.05 0.99 0.20 98 1013.8
20260507041834 7 313 0.0 0.0 0.05 0.99 0.20 98 1013.7
20260507041726 7 313 0.0 0.0 0.05 0.99 0.20 98 1013.8
20260507041624 7 313 0.0 0.0 0.05 0.99 0.20 98 1013.7
20260507041607 7 313 0.0 0.0 0.05 0.99 0.20 98 1013.8
20260507041144 7 313 0.0 0.0 0.05 0.99 0.20 98 1013.8
20260507040950 7 313 0.0 0.0 0.03 0.97 0.18 98 1013.8
20260507040904 7 313 0.0 0.0 0.03 0.97 0.18 98 1013.8
20260507040741 7 313 0.0 0.0 0.03 0.97 0.18 98 1013.8
20260507040712 11 265 0.0 0.0 0.05 0.99 0.94 91 1014.8
20260507040547 7 313 0.0 0.0 0.03 0.97 0.18 98 1013.7
20260507040407 7 313 0.0 0.0 0.03 0.97 0.18 98 1013.8
20260507040359 7 313 0.0 0.0 0.03 0.97 0.18 98 1013.7
20260507040149 7 313 0.0 0.0 0.03 0.97 0.18 98 1013.8
20260507040025 7 313 0.0 0.0 0.03 0.97 0.18 98 1013.6
20260507035952 7 313 0.0 0.0 0.03 0.97 0.18 98 1013.7
20260507035826 7 313 0.0 0.0 0.03 0.97 0.18 98 1013.7
20260507035728 7 313 0.0 0.0 0.03 0.97 0.18 98 1013.7
20260507035412 7 313 0.0 0.0 0.03 0.97 0.18 98 1013.6
20260507035233 7 313 0.0 0.0 0.03 0.97 0.18 98 1013.7
20260507035123 7 313 0.0 0.0 0.03 0.97 0.18 98 1013.8
20260507034737 7 313 0.0 0.0 0.03 0.97 0.18 98 1013.7
20260507034721 12 265 0.0 0.0 0.05 1.02 0.94 90 1014.8
20260507034657 12 265 0.0 0.0 0.05 1.02 0.94 90 1014.7
20260507034607 12 265 0.0 0.0 0.05 0.99 0.91 90 1014.8
20260507034537 7 313 0.0 0.0 0.03 0.97 0.18 98 1013.7
20260507034458 12 265 0.0 0.0 0.05 0.99 0.91 90 1014.6
20260507034406 7 313 0.0 0.0 0.03 0.97 0.18 98 1013.8
20260507034351 7 313 0.0 0.0 0.03 0.97 0.18 98 1013.7
20260507034227 12 265 0.0 1.6 0.05 0.99 0.91 90 1014.6
20260507034137 7 313 0.0 0.0 0.03 0.97 0.18 98 1013.7
20260507033939 7 313 0.0 0.0 0.03 0.97 0.18 98 1013.7
20260507033913 12 255 0.0 4.8 0.05 0.99 0.89 88 1014.3
20260507033839 7 313 0.0 0.0 0.03 0.97 0.18 98 1013.7
20260507033725 7 313 0.0 0.0 0.03 0.99 0.18 98 1013.7
20260507033531 7 313 0.0 0.0 0.05 0.99 0.18 98 1013.7
20260507033354 7 313 0.0 0.0 0.05 0.99 0.18 98 1013.7
20260507033128 7 313 0.0 0.0 0.05 0.99 0.18 98 1013.8
20260507033024 7 313 0.0 0.0 0.05 0.99 0.18 98 1013.7
20260507032957 7 313 0.0 0.0 0.05 0.99 0.18 98 1013.7
20260507032847 7 313 0.0 0.0 0.05 0.99 0.18 98 1013.7
20260507032753 7 313 0.0 0.0 0.05 0.99 0.18 97 1013.8
20260507032433 7 313 0.0 0.0 0.03 0.97 0.18 97 1013.8
20260507032235 7 313 0.0 0.0 0.03 0.97 0.15 97 1013.8
20260507031935 13 261 3.2 6.4 0.05 0.99 0.89 87 1014.2
20260507031904 7 313 0.0 0.0 0.03 0.97 0.15 97 1013.8
20260507031826 7 313 0.0 0.0 0.03 0.97 0.15 97 1013.8
20260507031707 7 313 0.0 0.0 0.03 0.97 0.15 97 1013.8
20260507031509 7 313 0.0 0.0 0.03 0.97 0.15 97 1013.8
20260507031359 7 313 0.0 0.0 0.03 0.97 0.15 97 1013.8
20260507031112 7 313 0.0 0.0 0.03 0.97 0.15 98 1013.9
20260507030934 7 313 0.0 0.0 0.03 0.97 0.15 98 1013.9
20260507030804 7 313 0.0 0.0 0.03 0.97 0.15 98 1013.9
20260507030653 7 313 0.0 0.0 0.03 0.97 0.15 98 1013.9
20260507030618 7 313 0.0 0.0 0.03 0.97 0.15 98 1013.9
20260507030604 7 313 0.0 0.0 0.03 0.97 0.15 98 1014.0
20260507025836 7 313 0.0 0.0 0.03 0.99 0.15 97 1013.9
20260507025712 13 264 3.2 6.4 0.05 1.02 0.89 86 1014.1
20260507025642 7 313 0.0 0.0 0.03 0.99 0.15 97 1014.0
20260507025506 13 270 0.0 6.4 0.05 1.02 0.89 86 1014.2
20260507025438 7 313 0.0 0.0 0.03 0.99 0.15 97 1013.9
20260507025334 7 313 0.0 0.0 0.05 0.99 0.15 97 1014.0
20260507025316 7 313 0.0 0.0 0.05 0.99 0.15 97 1014.0
20260507025057 7 313 0.0 0.0 0.05 0.99 0.15 97 1014.0
20260507024926 7 313 0.0 0.0 0.05 0.99 0.15 97 1014.0
20260507024756 7 313 0.0 0.0 0.05 0.99 0.15 97 1013.9
20260507024341 7 313 0.0 0.0 0.05 0.99 0.15 97 1013.9
20260507024328 7 313 0.0 0.0 0.05 0.99 0.15 97 1013.9
20260507024154 13 263 3.2 9.7 0.05 0.99 0.89 85 1014.1
20260507024057 7 313 0.0 0.0 0.05 0.99 0.15 97 1013.9
20260507023934 7 313 0.0 0.0 0.05 0.99 0.15 97 1013.9
20260507023821 7 313 0.0 0.0 0.03 0.97 0.15 97 1013.8
20260507023402 8 313 0.0 0.0 0.03 0.97 0.15 97 1013.9
20260507023344 7 313 0.0 0.0 0.03 0.97 0.15 97 1013.8
20260507023140 8 313 0.0 0.0 0.03 0.97 0.15 97 1013.9
20260507023032 8 313 0.0 0.0 0.03 0.97 0.15 97 1013.9
20260507023014 8 313 0.0 0.0 0.03 0.97 0.15 97 1013.8
20260507022511 8 313 0.0 0.0 0.03 0.97 0.15 97 1013.9
20260507022416 8 313 0.0 0.0 0.03 0.97 0.15 98 1013.8
20260507022343 8 313 0.0 0.0 0.03 0.97 0.15 98 1013.8
20260507022158 8 313 0.0 0.0 0.03 0.97 0.15 98 1013.8
20260507021834 8 313 0.0 0.0 0.03 0.99 0.15 98 1013.8
20260507021624 8 313 0.0 0.0 0.03 0.99 0.15 98 1013.9
20260507021420 8 313 0.0 0.0 0.05 0.99 0.15 98 1013.9
20260507021334 8 313 0.0 0.0 0.05 0.99 0.15 98 1013.8
20260507021300 8 313 0.0 0.0 0.05 0.99 0.15 98 1013.9
20260507021145 13 276 3.2 9.7 0.05 0.99 0.89 85 1014.1
20260507021023 8 313 0.0 0.0 0.05 0.99 0.15 98 1014.0
20260507020936 13 259 3.2 9.7 0.05 0.99 0.89 84 1014.0
20260507020839 8 313 0.0 0.0 0.05 0.99 0.15 98 1013.9
20260507020659 8 313 0.0 0.0 0.05 0.99 0.15 97 1013.9
20260507020612 8 313 0.0 0.0 0.05 0.99 0.15 97 1013.9
20260507020543 8 313 0.0 0.0 0.05 0.99 0.15 98 1013.9
20260507020522 8 313 0.0 0.0 0.05 0.99 0.15 97 1013.9
20260507020339 7 313 0.0 0.0 0.05 0.99 0.15 97 1013.8
20260507020243 8 313 0.0 0.0 0.05 0.99 0.15 97 1013.9
20260507020107 7 313 0.0 0.0 0.05 0.99 0.15 97 1013.8
20260507015452 8 313 0.0 0.0 0.03 0.97 0.13 97 1013.8
20260507015319 8 313 0.0 0.0 0.03 0.97 0.13 97 1013.8
20260507015232 8 313 0.0 0.0 0.03 0.97 0.13 97 1013.8
20260507014843 8 313 0.0 0.0 0.03 0.97 0.13 97 1013.9
20260507014748 8 313 0.0 0.0 0.03 0.97 0.13 97 1013.8
20260507014437 8 313 0.0 0.0 0.03 0.99 0.13 97 1014.0
20260507014305 7 313 0.0 0.0 0.03 0.99 0.13 97 1013.9
20260507014211 8 313 0.0 0.0 0.03 0.99 0.13 97 1013.9
20260507014123 8 313 0.0 0.0 0.03 0.99 0.13 97 1013.9
20260507013747 8 313 0.0 0.0 0.05 0.99 0.13 97 1013.9
20260507013721 8 313 0.0 0.0 0.05 0.99 0.13 97 1014.0
20260507013319 8 313 0.0 0.0 0.05 0.99 0.13 97 1014.0
20260507012612 8 313 0.0 0.0 0.05 0.99 0.13 97 1014.0
20260507012314 8 313 0.0 0.0 0.05 0.99 0.13 97 1014.0
20260507012142 8 313 0.0 0.0 0.05 0.99 0.13 97 1014.1
20260507012038 8 313 0.0 0.0 0.05 0.99 0.13 97 1014.0
20260507011600 8 313 0.0 0.0 0.05 0.99 0.13 97 1014.1
20260507011400 7 313 0.0 0.0 0.03 0.97 0.13 97 1014.0
20260507011317 8 313 0.0 0.0 0.03 0.97 0.10 97 1014.0
20260507011235 8 313 0.0 0.0 0.03 0.99 0.10 97 1014.1
20260507011049 8 313 0.0 0.0 0.03 0.99 0.10 96 1014.1
20260507010952 8 313 0.0 0.0 0.03 0.99 0.10 96 1014.0
20260507010937 8 313 0.0 0.0 0.03 0.99 0.10 96 1014.0
20260507010405 8 313 0.0 0.0 0.03 0.99 0.10 97 1014.1
20260507010340 8 313 0.0 0.0 0.03 0.99 0.10 97 1014.2
20260507010230 8 313 0.0 0.0 0.03 0.99 0.10 97 1014.1
20260507010122 8 313 0.0 0.0 0.03 0.99 0.10 97 1014.1
20260507010050 8 313 0.0 0.0 0.03 0.99 0.10 97 1014.1
20260507010029 8 313 0.0 0.0 0.03 0.99 0.10 97 1014.2
20260507005836 8 313 0.0 0.0 0.03 0.99 0.10 97 1014.3
20260507005515 8 313 0.0 0.0 0.05 0.99 0.10 97 1014.3
20260507005319 8 313 0.0 0.0 0.05 0.99 0.10 97 1014.2
20260507005157 8 313 0.0 0.0 0.05 0.99 0.10 96 1014.2
20260507004841 8 313 0.0 0.0 0.05 0.99 0.10 96 1014.3
20260507004638 8 313 0.0 0.0 0.05 0.99 0.10 96 1014.4
20260507004540 8 313 0.0 0.0 0.05 0.99 0.10 97 1014.4
20260507004141 8 313 0.0 0.0 0.05 0.99 0.10 97 1014.3
20260507004054 8 313 0.0 0.0 0.05 0.99 0.10 97 1014.4
20260507004031 8 313 0.0 0.0 0.05 0.99 0.10 97 1014.4
20260507003549 8 313 0.0 0.0 0.05 0.99 0.10 97 1014.5
20260507003450 8 313 0.0 0.0 0.03 0.99 0.08 97 1014.5
20260507003438 8 313 0.0 0.0 0.03 0.99 0.08 97 1014.5
20260507003227 8 313 0.0 0.0 0.03 0.99 0.08 97 1014.5
20260507003115 8 313 0.0 0.0 0.03 0.99 0.08 97 1014.6
20260507003100 8 313 0.0 0.0 0.03 0.99 0.08 97 1014.5
20260507002607 8 313 0.0 0.0 0.03 0.99 0.08 97 1014.6
20260507002531 8 313 0.0 0.0 0.03 0.99 0.08 97 1014.5
20260507002516 8 313 0.0 0.0 0.03 0.99 0.08 97 1014.6
20260507002333 8 313 0.0 0.0 0.05 0.99 0.08 97 1014.5
20260507002229 8 313 0.0 0.0 0.05 0.99 0.08 96 1014.5
20260507002213 8 313 0.0 0.0 0.05 0.99 0.08 96 1014.6
20260507002145 8 313 0.0 0.0 0.05 0.99 0.08 96 1014.5
20260507001654 8 313 0.0 0.0 0.05 0.99 0.08 96 1014.5
20260507001553 8 313 0.0 0.0 0.05 0.99 0.08 96 1014.6
20260507001213 8 313 0.0 0.0 0.05 0.99 0.08 96 1014.5
20260507001133 8 313 0.0 0.0 0.05 0.99 0.08 96 1014.5
20260507000931 8 313 0.0 0.0 0.05 0.99 0.08 96 1014.5
20260507000626 8 313 0.0 0.0 0.05 0.99 0.08 96 1014.5
20260507000421 8 313 0.0 0.0 0.05 0.99 0.08 96 1014.6
20260507000328 8 313 0.0 0.0 0.05 0.99 0.08 96 1014.6
20260506235925 8 313 0.0 0.0 0.05 0.99 0.08 96 1014.7
20260506235812 8 313 0.0 0.0 0.03 0.99 0.05 97 1014.6
20260506235707 8 313 0.0 0.0 0.03 0.99 0.05 97 1014.7
20260506235620 8 313 0.0 0.0 0.03 0.99 0.05 97 1014.7
20260506235254 8 313 0.0 0.0 0.05 0.99 0.05 96 1014.7
20260506235220 8 313 0.0 0.0 0.05 0.99 0.05 96 1014.7
20260506235119 8 313 0.0 0.0 0.05 0.99 0.05 96 1014.7
20260506235042 8 313 0.0 0.0 0.05 0.99 0.05 96 1014.6
20260506234403 9 313 0.0 0.0 0.05 0.99 0.05 96 1014.6
20260506234312 9 313 0.0 0.0 0.05 0.99 0.05 96 1014.6
20260506234212 9 313 0.0 1.6 0.05 0.99 0.05 96 1014.6
20260506234132 9 313 0.0 1.6 0.05 0.99 0.05 96 1014.6
20260506234112 9 313 0.0 1.6 0.05 0.99 0.05 96 1014.6
20260506234014 9 313 0.0 1.6 0.05 0.99 0.05 96 1014.5
20260506233711 9 313 0.0 1.6 0.05 0.99 0.05 96 1014.6
20260506233248 8 313 0.0 1.6 0.05 0.99 0.05 95 1014.6
20260506233207 8 290 0.0 0.0 0.05 1.02 0.05 96 1014.5
20260506233134 8 290 0.0 0.0 0.05 1.02 0.05 96 1014.6
20260506233019 9 290 0.0 0.0 0.03 0.99 0.05 96 1014.7
20260506232926 9 290 0.0 0.0 0.03 0.99 0.05 96 1014.7
20260506232846 9 290 0.0 0.0 0.05 0.99 0.05 96 1014.7
20260506232751 9 290 0.0 0.0 0.05 0.99 0.05 96 1014.8
20260506232722 9 290 0.0 0.0 0.05 0.99 0.05 95 1014.8
20260506232655 9 290 0.0 0.0 0.05 0.99 0.05 95 1014.8
20260506232306 9 290 0.0 0.0 0.05 0.99 0.05 95 1014.8
20260506231058 9 290 0.0 0.0 0.05 0.99 0.05 95 1014.8
20260506230953 9 290 0.0 0.0 0.05 0.99 0.05 95 1014.8
20260506230647 9 290 0.0 0.0 0.05 0.99 0.05 95 1014.7
20260506230255 10 290 0.0 0.0 0.05 0.99 0.05 96 1014.7
20260506230236 10 290 0.0 0.0 0.05 1.02 0.05 96 1014.7
20260506225840 10 290 0.0 0.0 0.03 0.99 0.05 96 1014.7
20260506225729 10 290 0.0 0.0 0.03 0.99 0.03 95 1014.8
20260506225349 10 290 0.0 0.0 0.05 0.99 0.03 95 1014.7
20260506225330 10 290 0.0 0.0 0.05 0.99 0.03 95 1014.7
20260506225254 10 290 0.0 0.0 0.05 0.99 0.03 95 1014.8
20260506224657 10 290 0.0 0.0 0.05 0.99 0.03 95 1014.8
20260506224552 10 290 0.0 0.0 0.05 0.99 0.03 95 1014.7
20260506224229 10 290 0.0 0.0 0.05 0.99 0.03 95 1014.8
20260506224154 10 290 0.0 0.0 0.05 0.99 0.03 95 1014.8
20260506222949 10 290 0.0 0.0 0.05 0.99 0.03 95 1014.8
20260506222934 10 290 0.0 0.0 0.05 1.02 0.03 95 1014.8
20260506222901 10 290 0.0 0.0 0.05 1.02 0.03 95 1014.8
20260506222757 10 290 0.0 0.0 0.05 1.02 0.03 95 1014.7
20260506222718 10 290 0.0 0.0 0.05 1.02 0.03 95 1014.8
20260506222701 10 290 0.0 0.0 0.05 1.02 0.03 95 1014.7
20260506222548 10 290 0.0 0.0 0.03 0.99 0.00 95 1014.7
20260506222241 10 290 0.0 0.0 0.05 0.99 0.00 95 1014.7
20260506222217 10 290 0.0 0.0 0.05 0.99 0.00 95 1014.8
20260506221842 10 290 0.0 0.0 0.05 0.99 0.00 95 1014.7
20260506221824 10 290 0.0 0.0 0.05 0.99 0.00 95 1014.8
20260506221720 10 290 0.0 0.0 0.05 0.99 0.00 95 1014.8
20260506221648 10 290 0.0 0.0 0.05 0.99 0.00 95 1014.8
20260506221626 10 290 0.0 0.0 0.05 0.99 0.00 95 1014.8
20260506221557 10 290 0.0 0.0 0.05 0.99 0.00 95 1014.9
20260506221135 10 290 0.0 0.0 0.05 0.99 0.99 94 1014.8
20260506221039 10 290 0.0 0.0 0.05 0.99 0.99 94 1014.8
20260506221003 10 290 0.0 0.0 0.05 0.99 0.99 94 1014.9
20260506220707 10 290 0.0 0.0 0.05 1.02 0.99 94 1014.8
20260506220600 10 290 0.0 0.0 0.05 1.02 0.99 94 1014.9
20260506220512 10 290 0.0 0.0 0.05 1.02 0.99 94 1014.9
20260506220355 10 290 0.0 0.0 0.05 1.02 0.99 94 1014.9
20260506215733 10 290 0.0 0.0 0.05 0.99 0.99 94 1014.9
20260506215639 10 290 0.0 0.0 0.05 0.99 0.99 94 1014.9
20260506215553 10 290 0.0 0.0 0.05 0.99 0.99 94 1014.9
20260506215242 10 290 0.0 0.0 0.05 0.99 0.99 94 1015.0
20260506215138 10 290 0.0 0.0 0.05 0.99 0.99 94 1015.0
20260506215108 10 290 0.0 0.0 0.05 0.99 0.99 93 1015.0
20260506214735 10 290 0.0 0.0 0.05 0.99 0.99 94 1015.0
20260506214420 11 290 0.0 0.0 0.05 0.99 0.99 94 1015.0
20260506214332 11 290 0.0 0.0 0.05 0.99 0.99 94 1015.0
20260506214247 11 290 0.0 0.0 0.05 0.99 0.99 94 1015.0
20260506214219 11 290 0.0 0.0 0.05 0.99 0.99 94 1015.0
20260506214137 11 290 0.0 0.0 0.05 1.02 0.99 93 1014.9
20260506213750 11 290 0.0 0.0 0.05 1.02 0.99 93 1015.0
20260506213736 11 290 0.0 0.0 0.05 1.02 0.99 93 1015.0
20260506213639 11 290 0.0 1.6 0.05 1.02 0.99 94 1015.0
20260506213533 11 290 0.0 1.6 0.05 0.99 0.97 93 1015.1
20260506213520 11 290 0.0 1.6 0.05 0.99 0.97 93 1015.0
20260506213442 11 290 0.0 1.6 0.05 0.99 0.97 93 1015.0
20260506213335 11 290 0.0 1.6 0.05 0.99 0.97 93 1015.0
20260506213300 11 290 0.0 1.6 0.05 0.99 0.97 93 1015.0
20260506213234 11 290 0.0 1.6 0.05 0.99 0.97 93 1015.0
20260506213115 11 265 0.0 0.0 0.05 0.99 0.97 93 1015.0
20260506212815 11 265 0.0 0.0 0.05 0.99 0.97 93 1015.0
20260506212716 11 265 0.0 0.0 0.05 0.99 0.97 92 1015.0
20260506212344 11 265 0.0 0.0 0.05 0.99 0.97 92 1015.0
20260506212327 11 265 0.0 0.0 0.05 0.99 0.97 92 1015.0
20260506212220 11 265 0.0 0.0 0.05 1.02 0.97 92 1015.1
20260506212128 11 265 0.0 0.0 0.05 1.02 0.97 92 1015.0
20260506212034 11 265 0.0 0.0 0.05 1.02 0.97 92 1015.1
20260506211709 11 265 0.0 0.0 0.05 1.02 0.97 92 1015.0
20260506211636 11 265 0.0 0.0 0.05 1.02 0.97 92 1015.0
20260506211230 11 265 0.0 0.0 0.05 0.99 0.94 92 1015.0
20260506211142 11 265 0.0 0.0 0.05 0.99 0.94 92 1014.9
20260506211103 11 265 0.0 0.0 0.05 0.99 0.94 92 1014.9
20260506210747 11 265 0.0 0.0 0.05 0.99 0.94 92 1015.0
20260506210705 11 265 0.0 0.0 0.05 0.99 0.94 91 1014.9
20260506210351 11 265 0.0 0.0 0.05 0.99 0.94 91 1014.8
20260506210023 11 265 0.0 0.0 0.05 0.99 0.94 91 1014.8
20260506210000 11 265 0.0 0.0 0.05 0.99 0.94 91 1014.9
20260506205921 11 265 0.0 0.0 0.05 0.99 0.94 91 1014.8
20260506205833 11 265 0.0 0.0 0.05 0.99 0.94 91 1014.7
20260506205522 12 265 0.0 0.0 0.05 1.02 0.94 90 1014.8
20260506205428 12 265 0.0 0.0 0.05 1.02 0.94 91 1014.7
20260506205052 12 265 0.0 0.0 0.05 0.99 0.94 90 1014.7
20260506204135 12 265 0.0 3.2 0.05 0.99 0.91 90 1014.7
20260506204043 12 265 0.0 3.2 0.05 0.99 0.91 90 1014.7
20260506203954 12 265 0.0 3.2 0.05 0.99 0.91 90 1014.6
20260506203932 12 265 0.0 3.2 0.05 0.99 0.91 90 1014.6
20260506203855 12 265 0.0 3.2 0.05 0.99 0.91 90 1014.5
20260506203754 12 265 1.6 3.2 0.05 0.99 0.91 90 1014.5
20260506203656 12 263 1.6 3.2 0.05 0.99 0.91 90 1014.5
20260506203627 12 251 1.6 3.2 0.05 0.99 0.91 90 1014.5
20260506203505 12 246 0.0 3.2 0.05 0.99 0.91 89 1014.6
20260506203342 12 261 1.6 3.2 0.05 1.02 0.91 89 1014.5
20260506203309 12 264 1.6 3.2 0.05 1.02 0.91 89 1014.5
20260506203203 12 267 1.6 3.2 0.05 1.02 0.91 89 1014.5
20260506203046 12 255 0.0 1.6 0.05 1.02 0.91 89 1014.5
20260506202950 12 255 0.0 1.6 0.05 1.02 0.91 89 1014.4
20260506202935 12 255 0.0 1.6 0.05 1.02 0.91 89 1014.4
20260506202809 12 255 0.0 1.6 0.05 0.99 0.89 89 1014.4
20260506202725 12 255 0.0 4.8 0.05 0.99 0.89 88 1014.4
20260506202113 13 255 0.0 6.4 0.05 0.99 0.89 88 1014.3
20260506202038 13 255 0.0 6.4 0.05 0.99 0.89 88 1014.3
20260506202005 13 255 0.0 6.4 0.05 0.99 0.89 87 1014.3
20260506201837 13 253 3.2 6.4 0.05 0.99 0.89 87 1014.3
20260506201420 13 263 3.2 6.4 0.05 0.99 0.89 87 1014.2
20260506201256 13 273 3.2 6.4 0.05 0.99 0.89 87 1014.1
20260506201105 13 265 1.6 6.4 0.05 0.99 0.89 86 1014.2
20260506200950 13 268 3.2 6.4 0.05 0.99 0.89 86 1014.2
20260506200530 13 288 3.2 4.8 0.05 1.02 0.89 86 1014.1
20260506200349 13 268 0.0 6.4 0.05 1.02 0.89 86 1014.2
20260506200015 13 263 1.6 6.4 0.05 0.99 0.89 85 1014.1
20260506195845 13 257 1.6 8.0 0.05 0.99 0.89 85 1014.2
20260506195741 13 269 3.2 9.7 0.05 0.99 0.89 85 1014.1
20260506194702 13 286 4.8 9.7 0.05 0.99 0.89 84 1014.0
20260506194532 13 281 4.8 9.7 0.05 0.99 0.89 84 1014.1
20260506194344 13 286 4.8 11.3 0.05 0.99 0.89 84 1014.0
20260506194231 13 283 4.8 11.3 0.05 0.99 0.89 84 1014.0
20260506194153 13 282 4.8 11.3 0.05 0.99 0.89 84 1014.0
20260506194005 13 252 4.8 11.3 0.05 0.99 0.89 84 1014.0
20260506193826 13 282 4.8 11.3 0.05 0.99 0.89 83 1014.0
20260506193809 13 278 6.4 11.3 0.05 0.99 0.89 83 1014.0
20260506193629 13 281 6.4 11.3 0.05 1.02 0.89 83 1014.0
20260506193439 13 274 6.4 11.3 0.05 1.02 0.89 83 1014.0
20260506193332 13 267 6.4 11.3 0.05 1.02 0.89 83 1014.0
20260506193247 13 263 6.4 11.3 0.05 1.02 0.89 83 1013.9
20260506193050 14 262 4.8 11.3 0.05 0.99 0.86 83 1013.9
20260506192912 14 269 4.8 11.3 0.05 0.99 0.86 82 1013.9
20260506192854 14 269 4.8 12.9 0.05 0.99 0.86 82 1013.9
20260506192708 14 244 6.4 12.9 0.05 0.99 0.86 82 1013.9
20260506192518 14 273 6.4 12.9 0.05 0.99 0.86 82 1013.9
20260506192430 14 270 6.4 12.9 0.05 0.99 0.86 82 1013.9
20260506192338 14 259 6.4 12.9 0.05 0.99 0.86 81 1013.9
20260506192154 14 270 6.4 12.9 0.05 0.99 0.86 81 1013.9
20260506191958 14 273 4.8 16.1 0.05 0.99 0.86 81 1014.0
20260506191813 14 262 6.4 16.1 0.05 0.99 0.86 80 1014.0
20260506191640 14 252 6.4 16.1 0.05 0.99 0.86 80 1013.9
20260506191206 15 285 9.7 16.1 0.05 1.02 0.86 79 1013.9
20260506191010 15 252 3.2 14.5 0.05 0.99 0.84 79 1013.8
20260506190829 15 235 6.4 14.5 0.05 0.99 0.84 78 1013.7
20260506190635 15 215 8.0 16.1 0.05 0.99 0.84 78 1013.7
20260506190313 15 271 9.7 16.1 0.05 0.99 0.84 77 1013.7
20260506190118 15 286 8.0 16.1 0.05 0.99 0.84 77 1013.7
20260506185928 15 279 8.0 16.1 0.05 0.99 0.84 76 1013.7
20260506185742 15 256 9.7 16.1 0.05 0.99 0.84 76 1013.7
20260506185610 15 265 9.7 14.5 0.05 0.99 0.84 76 1013.7
20260506185519 15 267 8.0 14.5 0.05 0.99 0.84 76 1013.6
20260506185055 15 273 8.0 14.5 0.05 0.99 0.84 76 1013.6
20260506184907 15 257 8.0 11.3 0.05 0.99 0.84 76 1013.6
20260506184857 15 271 8.0 11.3 0.05 0.99 0.84 76 1013.6
20260506184724 15 256 6.4 11.3 0.05 0.99 0.84 77 1013.5
20260506184535 15 259 4.8 12.9 0.05 0.99 0.81 77 1013.5
20260506184437 15 265 6.4 12.9 0.05 0.99 0.81 76 1013.5
20260506184343 15 265 6.4 12.9 0.05 0.99 0.81 76 1013.4
20260506183922 15 253 4.8 12.9 0.05 0.99 0.81 77 1013.4
20260506183754 15 315 6.4 14.5 0.05 0.99 0.81 76 1013.4
20260506183613 15 257 4.8 14.5 0.05 0.99 0.81 77 1013.4
20260506183121 15 269 9.7 14.5 0.05 0.99 0.81 75 1013.4
20260506182946 15 281 8.0 16.1 0.05 0.99 0.81 75 1013.4
20260506182927 15 294 8.0 16.1 0.05 0.99 0.81 75 1013.4
20260506182755 15 273 8.0 16.1 0.05 0.99 0.81 75 1013.3
20260506182614 15 304 6.4 20.9 0.05 0.99 0.79 76 1013.4
20260506182151 15 278 6.4 20.9 0.05 0.99 0.79 75 1013.3
20260506182015 15 300 9.7 24.1 0.05 0.99 0.79 74 1013.4
20260506181948 15 313 9.7 24.1 0.05 0.99 0.79 74 1013.3
20260506181532 15 263 14.5 24.1 0.05 0.99 0.79 74 1013.4
20260506181135 15 271 12.9 24.1 0.05 0.99 0.79 74 1013.3
20260506180622 15 277 14.5 20.9 0.05 0.99 0.79 73 1013.3
20260506180555 15 293 14.5 20.9 0.05 0.99 0.79 73 1013.3
20260506180354 15 243 12.9 22.5 0.05 0.99 0.79 73 1013.3
20260506180219 16 289 9.7 22.5 0.05 0.99 0.79 74 1013.2
20260506180150 16 296 9.7 22.5 0.05 0.99 0.79 74 1013.3
20260506180028 16 265 9.7 22.5 0.05 0.99 0.79 75 1013.3
20260506175843 16 279 11.3 22.5 0.05 0.99 0.79 74 1013.2
20260506175721 16 292 17.7 22.5 0.05 0.99 0.79 73 1013.3
20260506175647 16 279 17.7 22.5 0.05 0.99 0.79 72 1013.3
20260506175505 16 258 8.0 19.3 0.05 0.99 0.79 75 1013.3
20260506175316 16 306 12.9 19.3 0.05 0.99 0.79 74 1013.2
20260506175243 16 321 14.5 19.3 0.05 0.99 0.79 73 1013.3
20260506175118 16 259 14.5 19.3 0.05 0.99 0.79 75 1013.3
20260506174934 16 261 6.4 19.3 0.05 0.99 0.79 75 1013.3
20260506174816 16 293 9.7 17.7 0.05 0.99 0.79 75 1013.3
20260506174744 16 312 9.7 17.7 0.05 0.99 0.79 75 1013.2
20260506174607 16 298 9.7 17.7 0.05 0.99 0.79 75 1013.3
20260506174427 16 300 11.3 17.7 0.05 0.99 0.79 75 1013.3
20260506174358 16 287 8.0 17.7 0.05 0.99 0.79 75 1013.3
20260506174238 15 295 6.4 17.7 0.05 0.99 0.79 76 1013.3
20260506174058 15 253 6.4 17.7 0.05 0.99 0.76 76 1013.2
20260506173939 15 278 9.7 17.7 0.05 0.99 0.76 76 1013.3
20260506173902 15 288 9.7 17.7 0.05 0.99 0.76 76 1013.3
20260506173717 15 315 11.3 17.7 0.05 0.99 0.76 76 1013.3
20260506172712 15 270 6.4 22.5 0.05 0.99 0.76 77 1013.2
20260506172235 15 286 9.7 22.5 0.05 0.99 0.76 77 1013.1
20260506172045 15 303 14.5 22.5 0.05 0.99 0.76 77 1013.2
20260506171928 15 288 9.7 22.5 0.05 0.99 0.76 78 1013.1
20260506171853 15 279 9.7 17.7 0.05 0.99 0.76 79 1013.2
20260506171706 15 292 6.4 14.5 0.05 0.99 0.74 80 1013.3
20260506171526 15 337 8.0 16.1 0.05 0.99 0.74 80 1013.1
20260506171449 15 288 6.4 16.1 0.05 0.99 0.74 81 1013.0
20260506171050 15 295 9.7 17.7 0.05 0.99 0.74 80 1013.1
20260506170929 15 269 8.0 17.7 0.05 0.99 0.74 80 1013.1
20260506170857 15 299 8.0 17.7 0.05 0.99 0.74 80 1013.0
20260506170450 15 298 4.8 17.7 0.05 0.99 0.74 81 1013.0
20260506165654 15 289 4.8 19.3 0.05 0.99 0.71 80 1013.0
20260506165521 15 313 8.0 19.3 0.05 0.99 0.71 79 1013.1
20260506165500 15 312 11.3 19.3 0.05 0.99 0.71 79 1013.0
20260506165325 15 314 11.3 19.3 0.05 0.99 0.71 79 1013.0
20260506165138 15 315 11.3 19.3 0.05 0.99 0.71 78 1012.9
20260506165029 15 277 9.7 19.3 0.05 0.99 0.71 78 1012.9
20260506164940 15 290 9.7 19.3 0.05 0.99 0.71 78 1013.0
20260506164528 15 279 12.9 19.3 0.05 0.99 0.71 77 1012.9
20260506164511 15 277 14.5 19.3 0.05 0.99 0.71 77 1012.9
20260506164338 16 302 9.7 17.7 0.05 0.99 0.71 78 1012.9
20260506163922 15 311 6.4 17.7 0.08 0.99 0.71 80 1012.9
20260506163737 15 318 11.3 19.3 0.05 0.99 0.71 79 1012.9
20260506163224 15 291 11.3 19.3 0.05 0.99 0.71 78 1012.9
20260506163032 15 271 9.7 19.3 0.05 0.99 0.71 78 1012.9
20260506162935 15 289 8.0 22.5 0.05 0.99 0.71 77 1012.9
20260506162842 15 302 8.0 22.5 0.05 0.99 0.71 77 1012.9
20260506162709 15 309 9.7 22.5 0.05 0.99 0.71 77 1012.8
20260506162236 15 261 14.5 25.7 0.08 0.99 0.71 77 1012.8
20260506162054 15 304 12.9 29.0 0.08 0.99 0.71 77 1012.8
20260506161956 15 298 14.5 29.0 0.08 0.99 0.71 77 1012.8
20260506161530 15 288 14.5 29.0 0.05 0.99 0.69 76 1012.8
20260506161340 15 276 16.1 29.0 0.05 0.99 0.69 77 1012.9
20260506161146 15 273 17.7 29.0 0.05 0.99 0.69 76 1012.8
20260506161006 15 257 14.5 22.5 0.05 0.99 0.69 78 1012.9
20260506160910 15 295 14.5 22.5 0.05 0.99 0.69 77 1012.8
20260506160813 15 258 14.5 22.5 0.05 0.99 0.69 77 1012.8
20260506160629 15 238 12.9 25.7 0.05 0.99 0.69 77 1012.8
20260506160444 15 262 16.1 29.0 0.08 0.99 0.69 77 1012.8
20260506160051 16 283 12.9 29.0 0.08 0.99 0.69 78 1012.9
20260506155333 16 249 17.7 25.7 0.05 0.99 0.66 78 1012.8
20260506155317 16 281 17.7 25.7 0.05 0.99 0.66 78 1012.8
20260506155127 15 290 17.7 25.7 0.05 0.99 0.66 78 1012.9
20260506154943 15 261 12.9 25.7 0.05 0.99 0.66 79 1012.8
20260506154855 15 263 14.5 25.7 0.05 0.99 0.66 79 1012.9
20260506154754 15 269 17.7 25.7 0.05 0.99 0.66 79 1012.9
20260506154610 15 265 12.9 25.7 0.08 0.99 0.66 79 1012.8
20260506154444 15 252 16.1 25.7 0.08 0.99 0.66 79 1012.8
20260506154425 15 256 16.1 25.7 0.08 0.99 0.66 79 1012.8
20260506154034 15 267 14.5 27.4 0.08 0.99 0.66 78 1012.8
20260506153951 15 267 14.5 27.4 0.05 0.99 0.64 78 1012.8
20260506153558 16 287 17.7 32.2 0.05 0.99 0.64 77 1012.8
20260506153429 16 271 17.7 32.2 0.05 0.99 0.64 77 1012.8
20260506153404 16 250 17.7 32.2 0.05 0.99 0.64 77 1012.8
20260506153222 16 265 12.9 32.2 0.05 0.99 0.64 77 1012.8
20260506152819 16 293 12.9 22.5 0.08 0.99 0.64 78 1012.9
20260506152641 16 304 16.1 22.5 0.08 0.99 0.64 78 1012.9
20260506152406 16 272 16.1 22.5 0.08 0.99 0.64 79 1012.8
20260506152223 16 290 16.1 22.5 0.05 0.99 0.61 79 1012.9
20260506151708 15 235 12.9 24.1 0.05 0.99 0.61 80 1012.8
20260506151522 15 244 12.9 24.1 0.05 0.99 0.61 79 1012.8
20260506151359 15 285 14.5 24.1 0.05 0.99 0.61 79 1012.9
20260506151331 15 296 14.5 24.1 0.05 0.99 0.61 79 1012.8
20260506151151 15 296 17.7 24.1 0.08 0.99 0.61 78 1012.8
20260506151006 15 281 14.5 22.5 0.08 0.99 0.61 79 1012.8
20260506150941 15 277 12.9 22.5 0.08 0.99 0.61 79 1012.8
20260506150817 15 298 12.9 22.5 0.08 0.99 0.61 80 1012.8
20260506150641 15 260 12.9 22.5 0.08 0.99 0.61 80 1012.8
20260506150221 15 281 16.1 22.5 0.05 0.99 0.61 80 1012.8
20260506145721 15 293 9.7 17.7 0.05 0.99 0.61 82 1012.9
20260506145541 15 242 11.3 17.7 0.05 0.99 0.61 82 1012.9
20260506145424 15 246 11.3 17.7 0.08 0.99 0.61 81 1012.9
20260506145351 15 288 11.3 19.3 0.08 0.99 0.61 81 1012.9
20260506145215 15 232 9.7 20.9 0.08 0.99 0.61 82 1012.9
20260506145037 15 284 8.0 24.1 0.08 0.99 0.61 83 1012.9
20260506145008 15 262 8.0 24.1 0.08 0.99 0.61 83 1012.9
20260506144845 15 256 8.0 24.1 0.08 0.99 0.61 83 1012.9
20260506144454 15 257 17.7 24.1 0.05 0.99 0.58 81 1012.8
20260506144418 15 289 17.7 25.7 0.05 0.99 0.58 81 1012.8
20260506143959 15 269 12.9 25.7 0.05 0.99 0.58 83 1012.9
20260506143933 15 263 12.9 25.7 0.05 0.99 0.58 83 1012.9
20260506143808 15 267 12.9 25.7 0.05 0.99 0.58 82 1012.8
20260506143403 15 260 12.9 25.7 0.08 0.99 0.58 82 1012.9
20260506143322 15 281 12.9 24.1 0.08 0.99 0.58 83 1012.8
20260506143140 15 275 14.5 24.1 0.08 0.99 0.58 84 1012.8
20260506142957 15 283 11.3 22.5 0.08 0.99 0.58 87 1012.8
20260506142935 15 265 9.7 22.5 0.08 0.99 0.58 87 1012.8
20260506142759 15 255 9.7 22.5 0.05 0.99 0.56 87 1012.8
20260506142341 15 234 16.1 22.5 0.05 0.99 0.56 86 1012.8
20260506141440 15 283 12.9 22.5 0.08 0.99 0.56 87 1012.7
20260506141336 15 254 14.5 22.5 0.08 0.99 0.56 87 1012.8
20260506141239 15 263 14.5 22.5 0.08 0.99 0.56 89 1012.7
20260506141056 15 244 9.7 17.7 0.05 0.99 0.53 90 1012.8
20260506140904 15 234 12.9 17.7 0.05 0.99 0.53 91 1012.8
20260506140855 15 237 8.0 17.7 0.05 0.99 0.53 91 1012.8
20260506140703 15 252 4.8 12.9 0.05 0.99 0.53 91 1012.8
20260506140511 14 281 6.4 12.9 0.05 0.99 0.53 90 1012.7
20260506140414 14 231 6.4 12.9 0.05 0.99 0.53 90 1012.7
20260506140319 15 242 8.0 17.7 0.05 0.99 0.53 90 1012.8
20260506135900 15 228 6.4 17.7 0.05 0.99 0.53 92 1012.8
20260506135728 15 246 6.4 17.7 0.05 0.99 0.53 92 1012.7
20260506135545 15 231 9.7 17.7 0.05 0.99 0.53 92 1012.8
20260506135104 14 259 9.7 19.3 0.05 0.99 0.51 94 1012.8
20260506134905 14 281 4.8 19.3 0.05 0.99 0.51 94 1012.8
20260506134733 14 254 8.0 19.3 0.05 0.99 0.51 94 1012.7
20260506134551 14 254 14.5 19.3 0.05 0.99 0.51 95 1012.7
20260506134233 14 261 4.8 19.3 0.05 0.99 0.51 95 1012.8
20260506134047 14 242 6.4 19.3 0.05 0.99 0.51 95 1012.8
20260506133906 13 215 6.4 19.3 0.05 0.99 0.51 96 1012.6
20260506133858 13 215 6.4 19.3 0.05 0.99 0.51 96 1012.6
20260506133717 13 262 4.8 19.3 0.05 0.99 0.51 95 1012.7
20260506133533 13 315 8.0 19.3 0.05 0.97 0.51 95 1012.7
20260506133417 13 286 8.0 19.3 0.05 0.99 0.51 95 1012.7
20260506133336 13 232 6.4 19.3 0.05 0.99 0.51 95 1012.8
20260506133154 13 271 8.0 17.7 0.05 0.99 0.51 95 1012.7
20260506132737 13 234 8.0 17.7 0.05 0.99 0.51 95 1012.8
20260506132235 13 228 6.4 14.5 0.05 0.99 0.51 95 1012.8
20260506132151 13 261 4.8 11.3 0.05 0.99 0.51 95 1012.9
20260506132018 13 245 4.8 11.3 0.05 0.99 0.51 95 1012.8
20260506131602 13 220 6.4 11.3 0.05 0.99 0.51 95 1012.8
20260506131426 13 249 6.4 12.9 0.05 0.99 0.51 95 1012.8
20260506131246 13 229 4.8 12.9 0.05 0.97 0.51 95 1012.9
20260506131130 13 237 4.8 12.9 0.05 0.97 0.48 95 1012.9
20260506130655 13 243 4.8 12.9 0.05 0.99 0.48 95 1012.8
20260506130511 13 211 6.4 12.9 0.05 0.99 0.48 95 1012.8
20260506130442 13 254 6.4 12.9 0.05 0.99 0.48 95 1012.8
20260506130304 13 257 6.4 12.9 0.05 0.99 0.48 95 1012.8
20260506130121 13 249 6.4 12.9 0.05 0.99 0.48 95 1012.8
20260506130000 13 239 8.0 12.9 0.05 0.99 0.48 95 1012.8
20260506125530 13 232 4.8 11.3 0.05 0.99 0.48 96 1012.8
20260506125356 13 281 4.8 11.3 0.05 0.99 0.48 96 1012.7
20260506125322 13 217 4.8 11.3 0.05 0.99 0.48 96 1012.7
20260506125210 13 200 6.4 11.3 0.05 0.99 0.48 96 1012.7
20260506125019 13 242 4.8 11.3 0.05 0.99 0.48 96 1012.7
20260506124622 13 219 3.2 11.3 0.05 0.99 0.48 97 1012.7
20260506124429 13 202 4.8 11.3 0.05 0.99 0.46 96 1012.7
20260506124250 13 286 4.8 11.3 0.05 0.99 0.46 96 1012.6
20260506124217 13 236 4.8 16.1 0.05 0.99 0.46 96 1012.6
20260506124051 13 244 4.8 16.1 0.05 0.99 0.46 96 1012.6
20260506123539 13 235 4.8 17.7 0.05 0.99 0.46 96 1012.6
20260506123506 13 242 4.8 17.7 0.05 0.99 0.46 96 1012.6
20260506123315 13 254 8.0 17.7 0.05 0.99 0.46 96 1012.6
20260506123144 13 250 6.4 17.7 0.05 0.99 0.46 96 1012.6
20260506123107 13 252 6.4 17.7 0.05 0.99 0.46 96 1012.7
20260506122950 13 273 8.0 17.7 0.05 0.99 0.46 96 1012.7
20260506122754 13 306 11.3 17.7 0.05 0.99 0.46 96 1012.7
20260506122641 13 281 9.7 16.1 0.05 0.99 0.46 96 1012.7
20260506122611 13 273 8.0 14.5 0.05 0.99 0.46 95 1012.8
20260506122413 13 254 1.6 11.3 0.05 0.99 0.46 95 1012.6
20260506122247 13 239 1.6 9.7 0.05 0.99 0.46 95 1012.4
20260506122214 13 190 1.6 9.7 0.05 0.99 0.43 96 1012.4
20260506122124 13 190 1.6 9.7 0.05 0.99 0.43 96 1012.5
20260506121932 13 201 3.2 9.7 0.05 0.99 0.43 96 1012.5
20260506121803 13 279 0.0 9.7 0.05 0.99 0.43 95 1012.5
20260506121439 13 248 4.8 12.9 0.05 0.99 0.43 95 1012.6
20260506120417 13 237 4.8 12.9 0.05 0.99 0.43 95 1012.6
20260506120258 13 267 9.7 12.9 0.05 0.99 0.43 95 1012.5
20260506120113 13 225 6.4 17.7 0.05 0.99 0.43 95 1012.6
20260506115945 13 273 4.8 17.7 0.05 0.99 0.43 95 1012.7
20260506115849 13 252 4.8 17.7 0.05 0.99 0.43 95 1012.7
20260506115749 13 228 6.4 17.7 0.05 0.99 0.43 95 1012.7
20260506115553 13 238 4.8 17.7 0.05 0.99 0.43 95 1012.6
20260506115421 13 246 9.7 17.7 0.05 0.99 0.43 95 1012.7
20260506115218 13 286 4.8 14.5 0.05 0.99 0.43 96 1012.7
20260506115030 13 281 8.0 14.5 0.05 0.99 0.43 96 1012.6
20260506114932 13 243 8.0 14.5 0.05 0.99 0.43 96 1012.6
20260506114825 13 246 6.4 14.5 0.05 0.99 0.43 96 1012.6
20260506114640 13 248 6.4 11.3 0.05 0.99 0.43 96 1012.6
20260506114450 13 236 4.8 9.7 0.05 0.99 0.43 97 1012.6
20260506114301 13 246 4.8 11.3 0.05 0.99 0.43 97 1012.5
20260506114121 13 224 3.2 11.3 0.05 0.99 0.43 98 1012.5
20260506114031 13 248 3.2 11.3 0.05 0.99 0.43 98 1012.5
20260506113937 13 228 3.2 11.3 0.05 0.99 0.43 98 1012.6
20260506113749 13 251 4.8 11.3 0.05 0.99 0.43 97 1012.5
20260506113600 13 234 6.4 11.3 0.05 0.99 0.43 97 1012.6
20260506113011 13 243 6.4 11.3 0.05 0.99 0.43 97 1012.6
20260506112918 13 266 6.4 8.0 0.05 0.99 0.43 97 1012.6
20260506112411 13 223 4.8 6.4 0.05 0.99 0.43 98 1012.8
20260506112232 13 238 4.8 11.3 0.03 0.99 0.41 98 1012.7
20260506111827 13 221 4.8 11.3 0.03 0.99 0.41 98 1012.7
20260506111658 12 232 4.8 11.3 0.05 0.99 0.41 98 1012.7
20260506111608 12 229 3.2 11.3 0.05 0.99 0.41 97 1012.7
20260506111505 12 234 6.4 11.3 0.05 0.99 0.41 98 1012.7
20260506111340 13 240 4.8 11.3 0.05 0.99 0.41 98 1012.7
20260506111148 12 237 4.8 11.3 0.05 0.99 0.41 98 1012.7
20260506111005 12 216 8.0 12.9 0.05 0.99 0.41 98 1012.7
20260506110825 12 236 6.4 12.9 0.05 0.99 0.41 98 1012.7
20260506110730 12 238 4.8 12.9 0.05 0.99 0.41 98 1012.6
20260506110628 12 226 4.8 12.9 0.05 0.99 0.41 98 1012.7
20260506110445 12 252 6.4 12.9 0.05 0.99 0.41 98 1012.6
20260506110255 12 247 3.2 12.9 0.05 0.99 0.41 98 1012.6
20260506110105 12 233 6.4 12.9 0.05 0.99 0.41 98 1012.7
20260506105937 12 242 3.2 12.9 0.05 0.99 0.41 98 1012.7
20260506105843 12 234 6.4 12.9 0.05 0.99 0.41 97 1012.7
20260506105356 12 237 6.4 12.9 0.05 1.02 0.41 97 1012.6
20260506104250 12 231 4.8 8.0 0.05 0.99 0.38 97 1012.7
20260506104214 12 226 4.8 8.0 0.05 0.99 0.38 97 1012.7
20260506104147 12 226 4.8 8.0 0.05 0.99 0.38 97 1012.6
20260506104012 12 257 4.8 8.0 0.05 0.99 0.38 97 1012.7
20260506103832 12 225 4.8 9.7 0.05 0.99 0.38 97 1012.7
20260506103713 12 225 6.4 9.7 0.05 0.99 0.38 97 1012.7
20260506103633 12 225 6.4 14.5 0.05 0.99 0.38 97 1012.7
20260506103609 12 225 6.4 14.5 0.05 0.99 0.38 97 1012.7
20260506103536 12 225 6.4 14.5 0.05 0.99 0.38 97 1012.7
20260506103441 12 236 6.4 14.5 0.05 1.02 0.38 97 1012.8
20260506103334 12 259 9.7 14.5 0.05 1.02 0.38 97 1012.7
20260506103302 12 245 9.7 14.5 0.05 1.02 0.38 97 1012.8
20260506103126 12 269 11.3 14.5 0.05 1.02 0.38 97 1012.9
20260506102936 12 256 3.2 11.3 0.05 1.02 0.38 97 1012.8
20260506102903 12 265 0.0 9.7 0.05 1.02 0.38 97 1012.7
20260506102735 12 307 1.6 8.0 0.05 1.02 0.38 97 1012.6
20260506102311 12 229 3.2 9.7 0.05 1.02 0.38 97 1012.8
20260506102238 12 218 3.2 9.7 0.05 1.02 0.38 97 1012.7
20260506102102 12 221 4.8 9.7 0.05 1.02 0.38 97 1012.6
20260506101930 12 214 4.8 9.7 0.03 0.99 0.36 97 1012.6
20260506101902 12 262 4.8 9.7 0.03 0.99 0.36 97 1012.6
20260506101732 12 238 6.4 9.7 0.03 0.99 0.36 97 1012.5
20260506101553 12 225 4.8 9.7 0.03 0.99 0.36 97 1012.6
20260506101444 12 220 4.8 19.3 0.05 0.99 0.36 97 1012.5
20260506101413 12 221 4.8 19.3 0.05 0.99 0.36 97 1012.5
20260506101223 12 232 6.4 19.3 0.05 1.02 0.36 97 1012.6
20260506101049 12 220 4.8 22.5 0.05 1.02 0.36 97 1012.6
20260506101019 12 229 4.8 22.5 0.05 1.02 0.36 97 1012.4
20260506100843 12 217 4.8 22.5 0.05 1.02 0.36 97 1012.5
20260506100700 12 207 9.7 22.5 0.05 1.02 0.36 97 1012.5
20260506100543 12 272 8.0 22.5 0.05 1.02 0.36 97 1012.5